Printer-friendly version

IAU Minor Planet Center

Minor Planet Center

MPEC 2004-R80 : 2004 RV164

The following Minor Planet Electronic Circular may be linked-to from your own Web pages, but must not otherwise be redistributed electronically.


Read MPEC 2004-R79 Read MPEC 2004-R81


M.P.E.C. 2004-R80                                Issued 2004 Sept. 14, 15:23 UT

     The Minor Planet Electronic Circulars contain information on unusual
         minor planets and routine data on comets.  They are published
   on behalf of Commission 20 of the International Astronomical Union by the
          Minor Planet Center, Smithsonian Astrophysical Observatory,
                          Cambridge, MA 02138, U.S.A.

                  Supported in part by the Brinson Foundation
             Prepared using the Tamkin Foundation Computer Network

                              MPC@CFA.HARVARD.EDU
          URL http://cfa-www.harvard.edu/iau/mpc.html  ISSN 1523-6714

                                  2004 RV164

Observations:
     K04RG4V* C2004 09 13.22831 22 36 11.03 +24 49 13.1          19.2   ER080704
     K04RG4V  C2004 09 13.24043 22 36 28.46 +24 50 11.8          19.2   ER080704
     K04RG4V  C2004 09 13.25251 22 36 45.96 +24 51 09.5          18.4   ER080704
     K04RG4V  C2004 09 13.26477 22 37 03.68 +24 52 07.2          18.5   ER080704
     K04RG4V  C2004 09 13.27732 22 37 21.76 +24 53 05.6          18.5   ER080704
     K04RG4V  C2004 09 14.03323 22 55 30.88 +25 42 42.5          18.6 R ER080J95
     K04RG4V  C2004 09 14.03651 22 55 35.11 +25 42 52.9          18.5 R ER080J95
     K04RG4V  C2004 09 14.04931 22 55 51.75 +25 43 35.2          18.8 R ER080J95
     K04RG4V  C2004 09 14.05123 22 55 54.25 +25 43 41.0          18.3 R ER080J95
     K04RG4V  C2004 09 14.05312 22 55 56.71 +25 43 47.2          18.3 R ER080J95
     K04RG4V  C2004 09 14.15573 22 58 25.73 +25 50 09.4          19.2 R ER080734
     K04RG4V  C2004 09 14.15784 22 58 28.44 +25 50 16.6          19.2 R ER080734
     K04RG4V  C2004 09 14.15994 22 58 31.12 +25 50 23.9          19.6 R ER080734
     K04RG4V  C2004 09 14.17012 22 58 47.35 +25 51 10.9          18.6 R ER080G90
     K04RG4V  C2004 09 14.17138 22 58 48.95 +25 51 15.2          18.4 R ER080G90
     K04RG4V  C2004 09 14.17263 22 58 50.51 +25 51 19.7          18.5 R ER080G90
     K04RG4V  C2004 09 14.18286 22 59 03.49 +25 51 59.5          18.5 R ER080651
     K04RG4V  C2004 09 14.18480 22 59 06.01 +25 52 06.5          18.7 R ER080651
     K04RG4V 5C2004 09 14.21338 22 59 42.80 +25 53 29.4          18.5 R ER080673
     K04RG4V 5C2004 09 14.22662 22 59 59.30 +25 54 14.8                 ER080673
     K04RG4V 5C2004 09 14.23848 23 00 14.08 +25 54 54.9                 ER080673
     K04RG4V 5C2004 09 14.24873 23 00 26.85 +25 55 29.4                 ER080673
     K04RG4V 5C2004 09 14.25818 23 00 38.33 +25 56 00.3                 ER080673
     K04RG4V 5C2004 09 14.26105 23 00 42.08 +25 56 09.4                 ER080673
     K04RG4V  C2004 09 14.31064 23 01 39.98 +25 58 46.8          17.7 R ER080H06
     K04RG4V  C2004 09 14.31318 23 01 43.07 +25 58 54.6          17.2 R ER080H06
     K04RG4V  C2004 09 14.31577 23 01 46.30 +25 59 01.4          17.0 R ER080H06

Observer details:
651 Grasslands Observatory, Tucson.  Observer J. E. McGaha.  0.62-m f/5.1
    Newtonian reflector + CCD.
673 Table Mountain Observatory, Wrightwood.  Observer J. Young.  0.6-m
    reflector + CCD.
704 Lincoln Laboratory ETS, New Mexico.  Observers M. Blythe, F. Shelly,
    M. Bezpalko, R. Huber, L. Manguso, D. Torres, R. Kracke, M. McCleary,
    H. Stange, A. Milner.  Measurers J. Stuart, R. Sayer, J. Evans, J. Kommers.
    1.0-m f/2.15 reflector + CCD.
734 Farpoint Observatory.  Observer G. Hug.  0.4-m f/6 Schmidt-Cassegrain
    + CCD.
G90 Three Buttes Observatory, Tucson.  Observer G. R. Jones.  0.4-m
    Ritchey-Chretien + CCD.
H06 New Mexico Skies Observatory.  Observer R. Hutsebaut.  0.25-m reflector
    + CCD.
J95 Great Shefford.  Observer P. Birtwhistle.  0.30-m f/6.3 Schmidt-Cassegrain
    + CCD.

Orbital elements:
2004 RV164
Epoch 2004 July 14.0 TT = JDT 2453200.5                 MPC
M 348.55457              (2000.0)            P               Q
n   0.26604115     Peri.    2.47291     +0.85675022     +0.51513248
a   2.3942537      Node   326.48341     -0.47394356     +0.76741492
e   0.5777097      Incl.    2.57954     -0.20336314     +0.38172357
P   3.70           H   24.4           G   0.15           U   7
Residuals in seconds of arc
040913 704  1.2+  0.1+    040914 J95  0.0   0.2-    040914 673  1.2-  0.5-
040913 704  0.7-  0.1+    040914 734  0.5-  0.2-    040914 673  1.5-  0.2-
040913 704  0.4-  0.1+    040914 734  0.0   0.4-    040914 673  1.0-  0.2+
040913 704  0.1-  0.0     040914 734  0.3+  0.4-    040914 673  0.1+  0.8+
040913 704  0.2-  0.0     040914 G90  0.1-  0.4+    040914 673 (2.4-  0.8+)
040914 J95  0.4+  0.1+    040914 G90  0.0   0.2+    040914 673  0.5+  0.6+
040914 J95  0.1-  0.3-    040914 G90  0.3-  0.3+    040914 H06  0.1+  0.0
040914 J95  0.1-  0.2+    040914 651  0.6+  0.1+    040914 H06  0.1-  0.4+
040914 J95  0.0   0.3-    040914 651  1.7+  0.3+    040914 H06  0.9+  0.3-

Ephemeris:
2004 RV164               a,e,i = 2.39, 0.58, 3                   q = 1.0111
Date    TT    R. A. (2000) Decl.     Delta      r     Elong.  Phase     V
2004 09 12    22 01.69   +22 45.9    0.034    1.035   146.8    32.2    18.5
2004 09 17    23 48.92   +27 14.9    0.052    1.050   150.4    28.2    19.3
2004 09 22    00 37.74   +27 13.3    0.074    1.069   150.8    27.2    20.1
2004 09 27    01 02.33   +26 28.5    0.099    1.091   152.7    24.9    20.7
2004 10 02    01 16.05   +25 36.8    0.126    1.116   155.7    21.6    21.2

Kyle E. Smalley              (C) Copyright 2004 MPC           M.P.E.C. 2004-R80

Read MPEC 2004-R79 Read MPEC 2004-R81


Our Web policy. Index to the CBAT/MPC/ICQ pages.


Valid HTML 4.01!